Blountville, TN

11:57 AM EST on December 06, 2016 (GMT -0500)
Tri-Cities Regional Tennessee / Virginia

Weather History for KTRI - January, 2000

Change the Weather History Date:

Saturday, January 15, 2000

  Actual Average Record
Temperature  
Mean Temperature 30 °F 35 °F  
Max Temperature 46 °F 45 °F 72 °F (1950)
Min Temperature 15 °F 25 °F -4 °F (1964)
Degree Days  
Heating Degree Days 34 30  
Month to date heating degree days 450  
Since 1 July heating degree days 2179  
Cooling Degree Days 0 0  
Month to date cooling degree days 0  
Year to date cooling degree days 0  
Moisture  
Dew Point 14 °F    
Average Humidity 57    
Maximum Humidity 88    
Minimum Humidity 19    
Precipitation  
Precipitation 0.00 in 0.11 in 2.38 in (2013)
Month to date precipitation 1.59  
Year to date precipitation 1.59  
Snow  
Snow 0.00 in 0.20 in - ()
Month to date snowfall 2.2  
Since 1 July snowfall 4.9  
Snow Depth -    
Sea Level Pressure  
Sea Level Pressure 30.56 in    
Wind  
Wind Speed 2 mph (WSW)    
Max Wind Speed 14 mph    
Max Gust Speed -    
Visibility 10 miles    
Events      
T = Trace of Precipitation, MM = Missing Value Source: NWS Daily Summary

Daily Weather History Graph

Daily Weather History Graph

Search for Another Location

Airport or City:

Trip Planner

Search our weather history database for the weather conditions in past years. The results will help you decide how hot, cold, wet, or windy it might be!

Date:

Astronomy

Jan. 15, 2000 Rise Set
Actual Time 7:40 AM EST 5:37 PM EST
Civil Twilight 7:12 AM EST 6:05 PM EST
Nautical Twilight 6:40 AM EST 6:37 PM EST
Astronomical Twilight 6:09 AM EST 7:08 PM EST
Moon 12:59 PM EST (1/15) 1:27 AM EST (1/15)
Length of Visible Light 10h 52m
Length of Day
9h 56m
Waxing Gibbous, 63% of the Moon is Illuminated
Jan 15
Waxing Gibbous
Jan 20
Full
Jan 28
Last Quarter
Feb 5
New
Feb 12
First Quarter

Hourly Weather History & Observations

Time (EST) Temp. Windchill Dew Point Humidity Pressure Visibility Wind Dir Wind Speed Gust Speed Precip Events Conditions
12:53 AM 19.0 °F - 15.1 °F 85% 30.67 in 10.0 mi Calm Calm - N/A   Clear
1:53 AM 19.9 °F - 14.0 °F 78% 30.66 in 10.0 mi Calm Calm - N/A   Overcast
2:53 AM 19.9 °F - 16.0 °F 85% 30.66 in 10.0 mi Calm Calm - N/A   Mostly Cloudy
3:53 AM 19.0 °F - 15.1 °F 85% 30.65 in 10.0 mi Calm Calm - N/A   Clear
4:53 AM 18.0 °F - 14.0 °F 84% 30.64 in 10.0 mi Calm Calm - N/A   Clear
5:53 AM 16.0 °F - 12.0 °F 84% 30.65 in 10.0 mi Calm Calm - N/A   Clear
6:53 AM 17.1 °F - 12.9 °F 84% 30.66 in 10.0 mi Calm Calm - N/A   Clear
7:53 AM 15.1 °F - 12.0 °F 88% 30.67 in 10.0 mi Calm Calm - N/A   Clear
8:53 AM 19.9 °F - 15.1 °F 81% 30.66 in 10.0 mi Calm Calm - N/A   Clear
9:53 AM 26.1 °F 21.9 °F 17.1 °F 69% 30.65 in 10.0 mi East 3.5 mph - N/A   Clear
10:53 AM 30.0 °F - 17.1 °F 59% 30.64 in 10.0 mi Calm Calm - N/A   Clear
11:53 AM 37.0 °F - 15.1 °F 41% 30.61 in 10.0 mi Calm Calm - N/A   Partly Cloudy
12:53 PM 39.9 °F 37.8 °F 14.0 °F 35% 30.56 in 10.0 mi Variable 3.5 mph - N/A   Clear
1:53 PM 46.0 °F 40.2 °F 7.0 °F 20% 30.51 in 10.0 mi WSW 12.7 mph - N/A   Clear
2:53 PM 46.0 °F 39.9 °F 5.0 °F 19% 30.48 in 10.0 mi WSW 13.8 mph - N/A   Overcast
3:53 PM 46.9 °F - 6.1 °F 19% 30.47 in 10.0 mi West 10.4 mph - N/A   Overcast
4:53 PM 45.0 °F 40.6 °F 8.1 °F 22% 30.47 in 10.0 mi West 8.1 mph - N/A   Overcast
5:53 PM 43.0 °F 41.3 °F 14.0 °F 31% 30.46 in 10.0 mi SW 3.5 mph - N/A   Overcast
6:53 PM 39.0 °F - 15.1 °F 38% 30.46 in 10.0 mi Calm Calm - N/A   Mostly Cloudy
7:53 PM 36.0 °F - 15.1 °F 43% 30.46 in 10.0 mi Calm Calm - N/A   Mostly Cloudy
8:53 PM 33.1 °F - 19.0 °F 56% 30.45 in 10.0 mi Calm Calm - N/A   Mostly Cloudy
9:53 PM 32.0 °F - 17.1 °F 54% 30.44 in 10.0 mi Calm Calm - N/A   Clear
10:53 PM 30.9 °F - 19.0 °F 61% 30.43 in 10.0 mi Calm Calm - N/A   Clear
11:53 PM 30.9 °F - 18.0 °F 59% 30.41 in 10.0 mi Calm Calm - N/A   Clear